Location: Malcolm X Square
(37.7810°N, 122.4297°W)
Time: 23:56:57
(UTC+00:00)

SL-16 R/B - Pass Details

Date: 13 April 2024
Orbit: 839 x 849 km, 71.0° (Epoch: 21 May)

Event Time Altitude Azimuth Distance (km) Brightness Sun altitude
Exits shadow 12:40:42 - 213° (SSW) 2,588 4.2 -11.4°
Reaches altitude 10° 12:41:04 10° 214° (SSW) 2,447 4.1 -11.3°
Maximum altitude 12:46:37 62° 294° (WNW) 942 2.3 -10.3°
Drops below altitude 10° 12:52:14 10° 16° (NNE) 2,466 5.1 -9.2°
Sets 12:54:43 0° 19° (NNE) 3,406 6.0 -8.8°
